Wind_Speed
6 7 7 6 7 6 5 4 3 3 4 4 4 3 3 2 1 1 1 2 1 1 2 2 3 3 4 4 5 6 6 6 6 6 6 7 8 8 9 9 10 10 10
5 6 6 6 6 6 5 5 4 4 4 4 4 4 3 2 1 1 1 2 2 2 2 3 3 4 5 5 6 6 6 7 7 7 7 8 9 9 9 10 10 10 11
5 5 6 6 5 5 5 5 4 4 3 4 4 4 3 3 3 2 1 2 3 3 3 3 4 4 5 6 6 7 7 7 8 8 8 8 9 9 9 10 11 11 11
5 5 6 6 5 5 5 5 4 4 3 3 4 4 4 4 4 3 2 2 3 3 4 3 4 5 5 6 7 7 8 8 9 9 9 9 9 9 10 10 11 11 11
5 5 6 6 5 5 5 4 4 4 4 3 3 4 4 4 4 4 3 3 4 4 4 5 5 5 6 7 7 8 8 9 9 10 11 11 11 10 10 11 11 11 12
6 6 6 6 6 5 5 5 4 5 5 5 4 4 5 5 5 5 5 5 5 5 5 6 6 6 7 8 9 9 10 10 11 11 11 12 11 11 11 11 12 13 13
8 7 7 7 7 6 6 6 5 5 6 6 6 6 6 6 6 6 6 6 6 7 7 7 7 7 8 9 10 11 11 11 12 12 12 12 12 12 12 12 13 14 14
9 8 8 7 7 7 7 7 7 7 7 8 8 8 8 8 7 7 7 8 8 8 8 9 9 9 10 10 11 11 12 12 12 13 13 13 13 12 13 13 14 15 16
9 9 8 8 8 8 9 9 8 9 9 9 10 10 10 10 10 10 10 10 10 10 10 10 11 11 11 11 11 12 12 12 13 13 14 14 14 14 14 15 16 17 17
8 9 9 9 9 10 10 10 9 10 10 10 11 11 11 11 11 12 12 12 12 12 12 12 12 13 13 13 13 14 14 14 14 15 15 15 16 16 16 17 17 17 17
10 10 10 10 11 11 11 11 11 11 12 12 12 12 11 11 11 12 12 13 13 13 14 14 14 14 14 14 15 16 16 16 16 16 17 17 17 17 18 18 19 19 20
11 11 11 11 12 12 13 13 13 13 13 13 13 12 12 12 13 13 13 14 14 14 15 16 16 16 16 17 17 17 17 17 18 18 18 18 18 18 19 20 21 21 22
12 12 12 13 13 14 14 14 14 14 14 14 14 14 14 14 14 15 15 15 15 16 17 17 18 18 18 18 19 19 18 18 18 19 19 19 19 20 20 21 21 22 22
13 13 13 14 14 14 14 14 15 15 15 15 15 15 16 16 17 17 17 17 18 18 19 19 19 19 19 20 19 19 19 19 20 20 20 20 20 20 21 21 22 23 23
15 15 15 15 15 15 15 16 15 15 16 16 16 15 16 17 18 19 19 19 20 20 20 21 21 21 21 21 21 21 21 21 21 21 21 21 22 22 23 23 23 24 24
18 17 16 16 16 16 16 17 17 17 17 17 18 18 18 19 19 20 21 21 22 22 22 23 23 23 23 22 22 23 23 23 23 23 23 24 24 24 24 24 24 24 24
19 19 18 18 18 18 18 19 20 20 20 20 19 20 21 22 22 21 22 23 23 24 24 24 24 24 24 24 24 24 25 24 24 25 25 25 25 25 25 25 25 25 24
21 21 20 21 21 21 21 21 21 22 22 22 21 21 22 22 23 23 24 23 23 24 25 25 25 25 25 26 25 26 26 26 26 26 25 26 26 26 27 27 27 26 25
22 22 22 23 23 23 23 23 22 23 23 23 23 22 23 23 24 24 24 25 25 25 26 27 27 27 27 27 27 28 28 27 28 27 27 27 28 28 28 28 28 27 27
23 24 25 25 25 25 24 24 24 24 25 25 26 25 25 25 25 25 26 26 26 26 27 28 29 29 28 28 28 28 29 28 28 28 28 29 30 30 30 30 29 28 28
25 25 26 26 26 25 25 25 26 26 27 28 28 27 27 27 27 27 27 27 28 28 29 29 29 29 29 29 29 29 30 30 30 30 29 30 30 30 31 31 30 29 29
26 26 27 27 26 26 26 27 28 29 29 30 29 29 29 29 28 28 28 29 29 29 29 29 29 29 29 29 29 30 30 30 30 30 31 31 31 32 31 30 30 30 30
27 27 28 28 28 28 29 29 30 30 31 31 31 30 30 30 30 30 30 30 30 30 30 29 29 29 29 30 30 31 31 31 31 32 32 32 32 32 32 30 30 30 31
27 28 28 29 29 30 30 31 31 32 33 33 33 32 31 32 32 32 31 31 30 29 29 29 30 30 30 30 31 31 32 32 32 32 33 33 33 32 31 31 30 30 31
28 28 29 29 30 30 31 32 32 33 33 33 33 33 33 33 33 32 32 31 31 31 31 31 31 31 31 32 33 33 33 33 33 33 32 32 32 32 31 31 31 31 31
29 29 30 31 31 32 32 33 33 33 33 33 33 33 33 34 34 34 33 33 32 32 32 33 33 33 33 33 34 34 34 34 34 33 32 32 32 32 32 32 32 32 32
Wind_Direction
35 35 36 35 32 30 35 43 57 60 55 46 44 47 58 53 52 79 176 192 222 259 287 286 283 275 275 281 286 290 290 290 293 292 293 293 292 288 278 276 276 274 277
16 19 18 22 19 26 35 33 36 42 45 37 36 37 39 36 19 308 250 235 252 262 265 271 277 283 284 285 284 288 289 288 288 291 291 296 298 293 285 282 278 275 279
355 2 4 0 5 15 22 25 25 29 27 28 29 27 25 21 13 343 316 269 261 269 283 283 282 288 289 289 287 282 283 291 286 286 291 297 297 294 290 289 285 284 283
334 343 348 351 350 355 2 6 8 5 10 12 9 9 7 2 358 356 327 289 286 292 289 300 302 300 301 302 299 290 287 287 287 288 287 291 293 293 292 289 288 286 284
316 320 328 337 340 341 345 350 350 347 343 335 340 348 349 344 343 342 332 319 315 308 304 302 305 306 303 302 301 297 292 289 286 287 288 291 289 289 290 290 290 288 288
312 312 310 316 324 331 336 335 332 330 324 318 318 324 327 324 322 322 318 314 309 309 313 314 306 304 302 298 297 296 293 291 290 290 292 292 290 286 284 287 289 291 291
306 306 304 300 300 310 318 319 317 316 313 310 308 310 313 313 312 311 312 312 305 303 306 309 309 307 306 303 301 296 294 294 292 291 291 290 290 288 285 286 289 290 291
305 302 295 294 295 298 308 312 308 306 305 304 303 303 305 304 303 303 303 304 302 300 300 301 301 300 300 302 303 304 302 298 295 292 291 290 289 288 287 287 289 289 289
302 298 289 286 288 293 297 301 300 298 298 299 298 297 298 300 298 298 299 300 300 298 296 296 294 294 297 300 302 302 301 300 297 294 292 290 288 287 287 287 289 291 290
297 294 283 280 283 286 291 292 291 291 290 292 293 293 291 293 294 294 294 296 297 297 296 293 291 290 293 296 298 299 297 296 296 294 292 290 287 285 285 285 286 289 289
289 287 282 281 281 284 289 292 288 289 290 289 289 286 288 289 293 295 292 293 296 295 294 293 290 291 292 294 295 295 296 295 295 293 292 291 287 285 284 284 285 288 290
279 279 278 277 280 284 288 288 287 288 288 289 287 284 286 289 292 294 293 293 293 294 294 293 293 292 293 294 295 297 296 295 295 294 292 290 287 286 286 287 288 289 291
273 276 276 276 283 286 286 284 284 286 285 286 288 289 286 285 287 289 291 291 292 292 293 293 293 292 294 296 297 297 297 296 295 294 293 292 291 289 289 290 291 293 293
270 272 274 275 279 282 284 282 281 279 281 284 287 290 289 285 285 286 287 288 290 291 291 292 292 293 294 296 297 297 296 295 295 294 292 292 293 293 292 293 293 295 295
265 268 272 272 274 278 280 279 281 280 281 283 283 286 288 288 287 285 285 285 286 287 289 290 291 292 292 293 295 296 295 295 295 294 292 290 291 293 294 294 294 294 294
262 264 268 269 271 276 279 282 280 279 281 284 282 282 285 286 287 285 282 283 284 285 287 288 290 291 291 293 294 293 294 293 292 293 293 291 292 292 293 292 292 292 293
259 262 265 268 269 272 276 279 279 279 280 282 284 283 283 284 285 283 284 284 284 286 287 289 291 293 292 291 293 293 291 292 292 292 292 290 291 291 291 291 291 291 292
257 259 261 265 267 270 272 275 277 277 278 280 283 286 286 287 288 288 289 286 287 287 288 288 290 292 292 292 292 293 292 292 292 292 292 291 290 290 290 290 290 290 290
255 257 259 261 266 271 273 275 276 278 280 280 280 283 285 286 287 289 288 288 287 288 288 289 289 290 291 292 292 292 293 292 292 291 292 293 291 290 290 289 289 288 289
253 255 258 262 267 271 272 275 276 276 279 281 280 279 280 282 283 286 287 288 289 288 288 289 290 291 291 290 290 291 291 292 290 290 292 293 292 291 290 288 287 287 287
255 256 259 263 266 269 271 273 274 275 278 281 280 278 279 280 281 283 285 286 288 289 290 290 290 290 290 289 288 290 291 292 291 292 293 293 292 292 291 288 286 285 285
255 257 260 261 264 267 270 271 273 274 276 280 281 279 278 279 280 281 284 286 288 289 290 291 292 291 290 289 289 290 291 290 291 291 292 293 292 292 293 290 287 286 285
254 257 260 262 265 267 269 270 271 274 276 277 278 279 279 279 281 282 283 285 286 288 288 289 291 291 290 290 289 289 290 290 291 291 292 293 292 292 291 289 289 290 289
255 258 262 264 266 267 268 270 271 274 275 276 278 278 279 280 281 281 283 284 285 287 288 288 288 289 289 288 289 289 290 290 291 291 291 292 294 292 291 291 291 291 290
256 259 261 264 266 267 269 271 274 276 276 277 276 277 278 279 278 279 281 283 285 286 286 287 288 288 289 288 288 287 289 290 291 291 291 291 292 292 292 291 291 292 290
257 258 260 263 266 268 270 273 275 275 276 278 278 278 278 278 278 278 279 281 283 285 286 287 288 289 289 289 289 289 290 289 289 290 290 290 291 291 291 290 290 291 291
Height
5906 5905 5904 5903 5902 5901 5900 5899 5898 5897 5897 5896 5895 5894 5893 5893 5893 5892 5892 5892 5892 5891 5891 5891 5890 5890 5890 5890 5889 5889 5889 5888 5888 5887 5886 5886 5885 5885 5884 5884 5884 5884 5884
5907 5906 5905 5904 5903 5902 5901 5900 5899 5898 5897 5897 5896 5895 5894 5893 5893 5893 5893 5892 5892 5891 5890 5890 5890 5889 5889 5888 5888 5888 5887 5887 5886 5886 5885 5885 5885 5883 5883 5882 5882 5882 5881
5908 5907 5906 5905 5904 5902 5901 5901 5900 5899 5898 5897 5897 5896 5895 5894 5893 5893 5893 5892 5892 5891 5890 5890 5889 5889 5888 5887 5887 5887 5886 5886 5885 5884 5884 5883 5882 5882 5881 5881 5880 5879 5879
5908 5907 5906 5905 5904 5903 5902 5901 5900 5899 5899 5898 5897 5896 5895 5894 5894 5893 5892 5892 5891 5891 5890 5889 5888 5888 5887 5886 5885 5885 5884 5884 5883 5883 5882 5881 5880 5880 5879 5879 5878 5877 5876
5908 5907 5906 5905 5904 5903 5902 5901 5901 5900 5899 5898 5897 5896 5895 5894 5894 5893 5892 5892 5891 5890 5889 5888 5887 5887 5886 5885 5884 5883 5883 5882 5882 5881 5880 5879 5878 5877 5877 5876 5875 5875 5874
5907 5906 5906 5905 5904 5903 5902 5902 5901 5900 5899 5898 5897 5896 5895 5894 5893 5893 5892 5891 5890 5890 5889 5888 5887 5886 5885 5884 5883 5882 5881 5880 5880 5879 5878 5877 5876 5875 5874 5873 5872 5871 5871
5906 5905 5905 5904 5904 5903 5902 5901 5900 5899 5898 5897 5897 5896 5895 5894 5893 5892 5891 5890 5889 5888 5888 5887 5886 5885 5883 5882 5881 5880 5879 5878 5877 5876 5875 5874 5873 5872 5871 5871 5869 5868 5867
5904 5904 5903 5903 5903 5902 5901 5900 5899 5898 5898 5897 5896 5895 5894 5893 5892 5891 5890 5889 5888 5887 5886 5885 5884 5883 5882 5880 5879 5878 5876 5875 5874 5873 5872 5871 5870 5869 5868 5867 5866 5865 5864
5903 5902 5901 5901 5901 5900 5900 5899 5898 5897 5897 5896 5895 5894 5892 5891 5891 5890 5888 5887 5886 5885 5884 5883 5882 5880 5879 5878 5877 5876 5874 5873 5872 5870 5869 5868 5867 5865 5864 5863 5862 5861 5860
5900 5900 5899 5899 5899 5898 5898 5897 5896 5895 5895 5894 5893 5891 5891 5890 5889 5888 5886 5885 5884 5883 5882 5880 5879 5877 5876 5875 5874 5873 5871 5870 5869 5867 5866 5865 5863 5862 5861 5859 5858 5856 5855
5898 5897 5897 5897 5896 5896 5895 5894 5894 5893 5892 5891 5890 5889 5888 5887 5886 5885 5884 5883 5881 5880 5879 5877 5876 5874 5873 5872 5871 5870 5868 5866 5865 5864 5862 5861 5859 5858 5856 5855 5853 5852 5850
5895 5895 5894 5894 5893 5892 5892 5892 5891 5890 5889 5888 5887 5886 5885 5884 5883 5882 5881 5880 5878 5877 5876 5874 5872 5871 5870 5868 5867 5866 5864 5862 5861 5859 5858 5856 5854 5853 5852 5850 5848 5847 5845
5892 5892 5891 5891 5890 5889 5889 5888 5887 5886 5886 5885 5884 5883 5882 5881 5880 5879 5877 5876 5875 5874 5872 5871 5869 5867 5866 5864 5863 5861 5859 5858 5856 5854 5853 5851 5850 5848 5846 5844 5843 5841 5839
5888 5888 5888 5887 5886 5886 5885 5884 5884 5883 5882 5881 5880 5879 5878 5877 5876 5875 5873 5872 5871 5870 5868 5867 5865 5863 5862 5860 5858 5856 5854 5853 5851 5849 5848 5846 5844 5843 5841 5839 5837 5835 5833
5884 5884 5884 5883 5883 5882 5881 5880 5880 5879 5878 5877 5876 5875 5874 5873 5871 5870 5869 5868 5867 5865 5864 5862 5860 5858 5857 5855 5853 5851 5849 5847 5846 5844 5842 5840 5838 5837 5835 5833 5831 5829 5827
5879 5879 5879 5879 5878 5878 5877 5876 5875 5875 5874 5873 5872 5871 5869 5868 5866 5865 5864 5863 5862 5860 5859 5857 5855 5853 5851 5849 5847 5845 5844 5842 5840 5838 5836 5834 5832 5830 5828 5826 5824 5822 5820
5873 5873 5874 5874 5873 5873 5872 5872 5871 5870 5869 5868 5867 5865 5864 5863 5861 5860 5858 5857 5856 5854 5853 5851 5849 5847 5845 5843 5841 5839 5837 5835 5833 5831 5829 5827 5825 5823 5821 5819 5817 5815 5813
5867 5867 5868 5868 5868 5867 5867 5866 5865 5864 5863 5862 5861 5860 5858 5857 5856 5854 5853 5851 5850 5848 5846 5845 5843 5841 5839 5837 5835 5832 5830 5829 5827 5825 5822 5820 5818 5816 5814 5812 5810 5808 5806
5860 5861 5861 5861 5861 5861 5860 5860 5859 5858 5857 5856 5855 5854 5853 5851 5850 5848 5846 5844 5843 5841 5840 5838 5836 5834 5832 5830 5828 5826 5823 5821 5819 5817 5815 5813 5811 5808 5806 5804 5802 5800 5798
5853 5854 5854 5854 5854 5854 5853 5853 5852 5852 5851 5850 5848 5847 5846 5845 5843 5842 5840 5838 5836 5834 5833 5831 5829 5827 5825 5823 5820 5818 5816 5813 5811 5809 5807 5805 5803 5800 5798 5796 5794 5792 5790
5846 5847 5847 5847 5847 5847 5847 5846 5846 5845 5844 5843 5841 5840 5839 5838 5836 5835 5833 5831 5829 5827 5825 5823 5821 5819 5817 5815 5813 5810 5808 5806 5803 5801 5799 5796 5794 5791 5789 5787 5785 5783 5781
5839 5840 5840 5840 5840 5840 5840 5839 5838 5838 5837 5836 5834 5832 5831 5830 5828 5827 5825 5823 5821 5819 5817 5815 5813 5810 5808 5807 5804 5802 5800 5798 5795 5793 5790 5788 5785 5783 5780 5778 5776 5773 5772
5831 5832 5832 5833 5833 5832 5832 5831 5831 5829 5829 5828 5827 5825 5824 5822 5820 5818 5817 5815 5813 5811 5809 5807 5805 5802 5800 5798 5796 5794 5791 5789 5787 5784 5781 5779 5776 5773 5771 5769 5767 5764 5762
5823 5824 5825 5825 5825 5825 5824 5823 5822 5822 5821 5819 5818 5817 5815 5813 5812 5810 5808 5806 5804 5803 5801 5798 5796 5794 5792 5789 5787 5785 5782 5780 5777 5775 5772 5770 5767 5764 5762 5760 5758 5755 5753
5815 5816 5816 5817 5817 5816 5816 5815 5814 5813 5811 5810 5809 5807 5806 5804 5803 5801 5799 5797 5796 5794 5792 5790 5788 5786 5784 5781 5778 5775 5774 5771 5768 5765 5763 5761 5758 5756 5753 5751 5748 5746 5744
5806 5807 5808 5808 5808 5807 5806 5805 5804 5803 5802 5800 5799 5797 5796 5794 5793 5792 5790 5788 5787 5785 5783 5781 5779 5777 5774 5772 5769 5767 5764 5761 5759 5756 5754 5751 5749 5747 5744 5742 5739 5737 5735